Weather in Kano

Nigeria     11°59′28″N   8°32′01″E
temp.,
°C
wind,
m/s
gust,
m/s
humid.,
%
clouds,
%
prec.,
mm/h
press.,
hPa
HPBL,
m
3 march, wed
wed301:00+25ne5101461 0.0 1012254
04:00+23ne5111388 0.0 1012263
07:00+21ene491477 0.0 1013221
10:00+28ene610100 0.0 1013759
13:00+35ene7980 0.0 10111359
16:00+36ene68856 0.0 10082087
19:00+31ene581176 0.0 1009412
22:00+28ne510120 0.0 1012277
4 march, thu
thu401:00+26ene613110 0.0 1012405
04:00+23ne511120 0.0 1011268
07:00+21ene491321 0.0 1012200
10:00+29ene69911 0.0 1013717
13:00+35ene7877 0.0 10101601
16:00+36ene5570 0.0 10062290
19:00+31ne47100 0.0 1008286
22:00+28ne510100 0.0 1011226
5 march, fri
fri501:00+25ne51090 0.0 1011261
04:00+22ene461232 0.0 1010127
07:00+21ene361416 0.0 1012128
10:00+29e5895 0.0 1012589
13:00+35ene5663 0.0 10081528
16:00+37ne55520 0.0 10062066
19:00+31ne46747 0.0 1008174
22:00+28ne51071 0.0 1011218
6 march, sat
sat601:00+25ne591010 0.0 1011207
04:00+22ene461365 0.0 1011133
07:00+21ene351557 0.0 1013124
10:00+29e581047 0.0 1014651
13:00+35ene57624 0.0 10111586
16:00+37ene565100 0.0 10082453
19:00+31ne47766 0.0 1010205
22:00+28ne48833 0.0 1013198
7 march, sun
sun701:00+25ne591040 0.0 1012203
04:00+23ne4990 0.0 1012177
07:00+21ene3690 0.0 1013125
10:00+29e5760 0.0 1014569
13:00+36ene5640 0.0 10101403
16:00+38ene5640 0.0 10072393
19:00+32ne4760 0.0 1009168
22:00+28ene5860 0.0 1011182